Regional Weather Roundup
Issued by NWS

Home | Current Version | Previous Version | Text Only | Print | Product List | Glossary Off
Versions: 1 2 3 4 5 6 7 8 9 10 11 12 13 14 15 16 17 18 19 20 21 22 23 24 25 26 27

000
ASUS45 KSLC 190110
RWRUT

UTAH REGIONAL WEATHER ROUNDUP
NATIONAL WEATHER SERVICE SALT LAKE CITY UT
700 PM MDT FRI AUG 18 2017

UTZ001>011-023>025-190200-

NORTHERN UTAH

CITY           SKY/WX    TMP DP  RH WIND       PRES   REMARKS
BRIGHAM CITY   SUNNY     89  19   8 S9        30.07F
HILL AFB       SUNNY     85  30  13 CALM      30.12F
LOGAN          SUNNY     88  33  14 S12       30.08F
OGDEN            N/A     87  29  12 SW5       30.08F
SALT LAKE CITY MOSUNNY   91  36  14 N12       30.06F
TOOELE VALLEY  SUNNY     84  45  24 N6        30.08F
WENDOVER       SUNNY     90  33  13 E9        30.05F
HEBER CITY     MOSUNNY   86  32  14 SW12      30.14F
WEST JORDAN    SUNNY     87  51  29 N8        30.11S

$$

UTZ011>015-024>027-190200-

CENTRAL/NORTHEAST UTAH

CITY           SKY/WX    TMP DP  RH WIND       PRES   REMARKS
PROVO AIRPORT  SUNNY     87  50  27 NW12      30.08F
MOAB/CANYONLAN SUNNY     93  26   9 W5        30.04F
DELTA          SUNNY     90  30  12 NW6       30.08F
PRICE          MOSUNNY   87  32  14 SW7       30.16F
ROOSEVELT      SUNNY     88  32  13 CALM      30.11F
VERNAL         SUNNY     88  37  16 E5        30.10F

$$

UTZ013>016-019>022-027-190200-

SOUTHERN UTAH

CITY           SKY/WX    TMP DP  RH WIND       PRES   REMARKS
BRYCE CANYON   PTSUNNY   73  39  29 W8        30.34S
CEDAR CITY     MOSUNNY   87  38  17 CALM      30.15F
MILFORD        MOSUNNY   91  32  12 S5        30.09F
ST GEORGE      PTCLDY    99  38  12 W9        29.92F HX  94
HANKSVILLE     SUNNY     95  32  11 E6        30.05F HX  90
BLANDING         N/A     86  30  13 S3        30.25S

$$

REGIONAL REPORTS     COLORADO/ARIZONA

CITY           SKY/WX    TMP DP  RH WIND       PRES   REMARKS
CRAIG, CO      MOSUNNY   84  26  12 W12       30.18F
GRAND JUNCTION SUNNY     91  28  10 NW13      30.07F
RIFLE, CO      SUNNY     89  17   7 W12       30.12F
MONTROSE, CO   SUNNY     83  39  21 NW6       30.16F
CORTEZ, CO     SUNNY     86  28  12 W6        30.18S
COLORADO CITY    N/A     93  36  13 CALM      30.12F
PAGE, AZ       SUNNY     96  32  10 NE5       30.02F HX  90
GRAND CANYON   MOSUNNY   81  35  19 E3        30.26F
KINGMAN, AZ    SUNNY     94  34  12 SW13      30.01
FLAGSTAFF, AZ  SUNNY     76  31  19 SW14      30.30F

$$

REGIONAL REPORTS    NEVADA/IDAHO/WYOMING

CITY           SKY/WX    TMP DP  RH WIND       PRES   REMARKS
LAS VEGAS, NV  MOSUNNY  102  35  10 E3        29.87F HX  96
ELY, NY        MOSUNNY   84  28  13 S6        30.19F
ELKO, NV       MOSUNNY   89  19   7 W7        30.11F
POCATELLO, ID  SUNNY     85  27  12 SW15      30.09F
BURLEY, ID     SUNNY     82  37  20 W9        30.06F
FORT BRIDGER,    N/A     79  26  14 W18G25    30.29F
EVANSTON, WY   SUNNY     76  29  17 W20       30.28F
ROCK SPRINGS,  SUNNY     81  22  11 W18       30.21S
KEMMERER, WY     N/A    N/A N/A N/A W17G25    30.29F

$$




USA.gov is the U.S. government's official web portal to all federal, state and local government web resources and services.